Location: Bakov nad Jizerou
(50.4784°N, 14.9394°E)
Time: 09:25:08
(UTC+00:00)

Meteor 2-5 Rocket - Pass Details

Date: 16 June 2021
Orbit: 833 x 911 km, 81.2° (Epoch: 04 August)

Event Time Altitude Azimuth Distance (km) Brightness Sun altitude
Exits shadow 20:42:00 13° 156° (SSE) 2,265 5.3 -10.0°
Maximum altitude 20:46:34 39° 92° (E) 1,247 4.4 -10.4°
Drops below altitude 10° 20:51:43 10° 25° (NNE) 2,483 6.6 -10.8°
Sets 20:54:18 0° 18° (NNE) 3,434 7.6 -11.0°
